| time (UTC) | temp C | wind direction | speed KPH | gust KPH | rain 1hr cm | rain 24hr cm | rain mn cm | humidity % | barometer mb |
| 20260902130519 | 12 | 0 | 0.0 | 3.2 | 0.00 | 0.03 | 0.03 | 75 | 1018.0 |
| 20260902130037 | 12 | 0 | 0.0 | 3.2 | 0.00 | 0.03 | 0.03 | 75 | 1018.0 |
| 20260902125519 | 12 | 0 | 0.0 | 3.2 | 0.00 | 0.03 | 0.03 | 74 | 1018.0 |
| 20260902125020 | 12 | 0 | 0.0 | 0.0 | 0.00 | 0.03 | 0.03 | 74 | 1018.1 |
| 20260902124535 | 12 | 0 | 0.0 | 0.0 | 0.00 | 0.03 | 0.03 | 74 | 1018.1 |
| 20260902124016 | 12 | 0 | 0.0 | 0.0 | 0.00 | 0.03 | 0.03 | 74 | 1018.0 |
| 20260902123517 | 12 | 0 | 0.0 | 0.0 | 0.00 | 0.03 | 0.03 | 74 | 1018.1 |
| 20260902123034 | 12 | 0 | 0.0 | 0.0 | 0.00 | 0.03 | 0.03 | 74 | 1018.1 |
| 20260902122518 | 12 | 0 | 0.0 | 0.0 | 0.00 | 0.03 | 0.03 | 74 | 1018.2 |
| 20260902122019 | 12 | 0 | 0.0 | 1.6 | 0.00 | 0.03 | 0.03 | 74 | 1018.2 |
| 20260902121535 | 12 | 0 | 0.0 | 3.2 | 0.00 | 0.03 | 0.03 | 74 | 1018.3 |
| 20260902121021 | 12 | 0 | 0.0 | 3.2 | 0.00 | 0.03 | 0.03 | 74 | 1018.2 |
| 20260902120517 | 12 | 0 | 0.0 | 3.2 | 0.00 | 0.03 | 0.03 | 73 | 1018.3 |
| 20260902120034 | 12 | 0 | 0.0 | 4.8 | 0.00 | 0.03 | 0.03 | 73 | 1018.4 |
| 20260902115519 | 12 | 0 | 0.0 | 4.8 | 0.00 | 0.03 | 0.03 | 73 | 1018.3 |
| 20260902115019 | 13 | 0 | 0.0 | 4.8 | 0.00 | 0.03 | 0.03 | 73 | 1018.2 |
| 20260902114535 | 13 | 0 | 0.0 | 6.4 | 0.00 | 0.03 | 0.03 | 73 | 1018.1 |
| 20260902114023 | 13 | 0 | 0.0 | 6.4 | 0.00 | 0.03 | 0.03 | 73 | 1017.9 |
| 20260902113516 | 13 | 269 | 0.0 | 6.4 | 0.00 | 0.03 | 0.03 | 73 | 1018.0 |
| 20260902113031 | 13 | 270 | 0.0 | 4.8 | 0.00 | 0.03 | 0.03 | 73 | 1017.9 |
| 20260902112518 | 13 | 272 | 0.0 | 3.2 | 0.00 | 0.03 | 0.03 | 72 | 1018.0 |
| 20260902112019 | 13 | 0 | 0.0 | 4.8 | 0.00 | 0.03 | 0.03 | 72 | 1017.8 |
| 20260902111535 | 13 | 272 | 1.6 | 6.4 | 0.00 | 0.03 | 0.03 | 72 | 1017.7 |
| 20260902111017 | 13 | 273 | 1.6 | 6.4 | 0.00 | 0.03 | 0.03 | 72 | 1017.7 |
| 20260902110516 | 13 | 0 | 0.0 | 11.3 | 0.00 | 0.03 | 0.03 | 72 | 1017.7 |
| 20260902110033 | 13 | 273 | 4.8 | 11.3 | 0.00 | 0.03 | 0.03 | 71 | 1017.6 |
| 20260902105518 | 13 | 244 | 3.2 | 9.7 | 0.00 | 0.03 | 0.03 | 71 | 1017.8 |
| 20260902105019 | 13 | 253 | 1.6 | 9.7 | 0.00 | 0.03 | 0.03 | 71 | 1017.8 |
| 20260902104540 | 13 | 250 | 3.2 | 9.7 | 0.00 | 0.03 | 0.03 | 71 | 1017.8 |
| 20260902104019 | 13 | 268 | 3.2 | 14.5 | 0.00 | 0.03 | 0.03 | 70 | 1017.7 |
| 20260902103516 | 13 | 217 | 3.2 | 14.5 | 0.00 | 0.03 | 0.03 | 70 | 1017.7 |
| 20260902103036 | 13 | 238 | 6.4 | 20.9 | 0.00 | 0.03 | 0.03 | 69 | 1017.7 |
| 20260902102515 | 13 | 258 | 4.8 | 20.9 | 0.00 | 0.03 | 0.03 | 69 | 1017.5 |
| 20260902102016 | 13 | 288 | 1.6 | 6.4 | 0.00 | 0.03 | 0.03 | 68 | 1017.4 |
| 20260902101536 | 13 | 288 | 3.2 | 6.4 | 0.00 | 0.03 | 0.03 | 68 | 1017.2 |
| 20260902101017 | 13 | 0 | 0.0 | 8.0 | 0.00 | 0.03 | 0.03 | 67 | 1017.4 |
| 20260902100519 | 13 | 0 | 1.6 | 8.0 | 0.00 | 0.03 | 0.03 | 67 | 1017.4 |
| 20260902100034 | 13 | 288 | 0.0 | 8.0 | 0.00 | 0.03 | 0.03 | 67 | 1017.3 |
| 20260902095518 | 13 | 288 | 1.6 | 8.0 | 0.00 | 0.03 | 0.03 | 67 | 1017.2 |
| 20260902095018 | 13 | 290 | 1.6 | 8.0 | 0.00 | 0.03 | 0.03 | 67 | 1017.2 |
| 20260902094533 | 13 | 290 | 1.6 | 8.0 | 0.00 | 0.03 | 0.03 | 67 | 1017.2 |
| 20260902094017 | 12 | 290 | 1.6 | 11.3 | 0.00 | 0.03 | 0.03 | 67 | 1017.2 |
| 20260902093516 | 12 | 291 | 3.2 | 11.3 | 0.00 | 0.03 | 0.03 | 68 | 1017.2 |
| 20260902093037 | 13 | 294 | 3.2 | 8.0 | 0.00 | 0.03 | 0.03 | 69 | 1017.1 |
| 20260902092519 | 13 | 294 | 1.6 | 8.0 | 0.00 | 0.03 | 0.03 | 69 | 1017.1 |
| 20260902092018 | 13 | 293 | 1.6 | 6.4 | 0.00 | 0.03 | 0.03 | 68 | 1017.1 |
| 20260902091531 | 13 | 294 | 0.0 | 4.8 | 0.00 | 0.03 | 0.03 | 68 | 1017.0 |
| 20260902091016 | 13 | 294 | 1.6 | 4.8 | 0.00 | 0.03 | 0.03 | 68 | 1017.0 |
| 20260902090516 | 13 | 294 | 0.0 | 8.0 | 0.00 | 0.03 | 0.03 | 68 | 1017.0 |
| 20260902090034 | 13 | 294 | 1.6 | 8.0 | 0.00 | 0.03 | 0.03 | 67 | 1017.0 |
| 20260902085516 | 13 | 294 | 1.6 | 8.0 | 0.00 | 0.03 | 0.03 | 67 | 1017.1 |
| 20260902085018 | 13 | 296 | 3.2 | 8.0 | 0.00 | 0.03 | 0.03 | 66 | 1016.9 |
| 20260902084534 | 13 | 0 | 1.6 | 8.0 | 0.00 | 0.03 | 0.03 | 66 | 1016.9 |
| 20260902084017 | 13 | 296 | 1.6 | 8.0 | 0.00 | 0.03 | 0.03 | 66 | 1016.7 |
| 20260902083515 | 13 | 298 | 0.0 | 6.4 | 0.00 | 0.03 | 0.03 | 66 | 1016.6 |
| 20260902083032 | 13 | 298 | 1.6 | 12.9 | 0.00 | 0.03 | 0.03 | 66 | 1016.6 |
| 20260902082522 | 13 | 300 | 1.6 | 12.9 | 0.00 | 0.03 | 0.03 | 66 | 1016.6 |
| 20260902082020 | 13 | 252 | 4.8 | 12.9 | 0.00 | 0.03 | 0.03 | 65 | 1016.6 |
| 20260902081535 | 13 | 264 | 1.6 | 11.3 | 0.00 | 0.03 | 0.03 | 65 | 1016.5 |
| 20260902081016 | 14 | 267 | 4.8 | 12.9 | 0.00 | 0.03 | 0.03 | 65 | 1016.6 |
| 20260902080516 | 14 | 258 | 4.8 | 12.9 | 0.00 | 0.03 | 0.03 | 65 | 1016.6 |
| 20260902080034 | 14 | 261 | 3.2 | 16.1 | 0.00 | 0.03 | 0.03 | 65 | 1016.5 |
| 20260902075521 | 14 | 294 | 6.4 | 16.1 | 0.00 | 0.03 | 0.03 | 65 | 1016.5 |
| 20260902075015 | 14 | 284 | 3.2 | 11.3 | 0.00 | 0.03 | 0.03 | 66 | 1016.5 |
| 20260902074535 | 14 | 280 | 3.2 | 14.5 | 0.00 | 0.03 | 0.03 | 66 | 1016.6 |
| 20260902074016 | 14 | 280 | 3.2 | 14.5 | 0.00 | 0.03 | 0.03 | 66 | 1016.6 |
| 20260902073515 | 14 | 272 | 3.2 | 14.5 | 0.00 | 0.03 | 0.03 | 66 | 1016.5 |
| 20260902073034 | 14 | 290 | 3.2 | 12.9 | 0.00 | 0.03 | 0.03 | 66 | 1016.5 |
| 20260902072515 | 14 | 298 | 3.2 | 12.9 | 0.00 | 0.25 | 0.03 | 66 | 1016.5 |
| 20260902072023 | 14 | 297 | 3.2 | 12.9 | 0.00 | 0.25 | 0.03 | 66 | 1016.5 |
| 20260902071534 | 14 | 305 | 4.8 | 12.9 | 0.00 | 0.25 | 0.03 | 66 | 1016.5 |
| 20260902071019 | 14 | 212 | 1.6 | 12.9 | 0.00 | 0.25 | 0.03 | 66 | 1016.6 |
| 20260902070518 | 14 | 208 | 0.0 | 12.9 | 0.00 | 0.25 | 0.03 | 65 | 1016.5 |
| 20260902070033 | 14 | 200 | 3.2 | 12.9 | 0.00 | 0.25 | 0.03 | 65 | 1016.7 |
| 20260902065519 | 15 | 234 | 3.2 | 9.7 | 0.00 | 0.25 | 0.03 | 65 | 1016.7 |
| 20260902065016 | 15 | 229 | 3.2 | 11.3 | 0.00 | 0.25 | 0.03 | 64 | 1016.6 |
| 20260902064532 | 15 | 224 | 4.8 | 12.9 | 0.00 | 0.25 | 0.03 | 64 | 1016.5 |
| 20260902064015 | 15 | 233 | 3.2 | 12.9 | 0.00 | 0.25 | 0.03 | 64 | 1016.5 |
| 20260902063522 | 15 | 227 | 3.2 | 12.9 | 0.00 | 0.25 | 0.03 | 63 | 1016.5 |
| 20260902063042 | 15 | 0 | 1.6 | 11.3 | 0.00 | 0.25 | 0.03 | 63 | 1016.5 |
| 20260902062523 | 15 | 210 | 3.2 | 11.3 | 0.00 | 0.36 | 0.03 | 63 | 1016.5 |
| 20260902062019 | 15 | 192 | 3.2 | 11.3 | 0.00 | 0.36 | 0.03 | 63 | 1016.5 |
| 20260902061548 | 15 | 271 | 1.6 | 9.7 | 0.00 | 0.36 | 0.03 | 62 | 1016.5 |
| 20260902061019 | 15 | 270 | 3.2 | 9.7 | 0.00 | 0.36 | 0.03 | 61 | 1016.5 |
| 20260902060518 | 15 | 271 | 3.2 | 11.3 | 0.00 | 0.36 | 0.03 | 61 | 1016.6 |
| 20260902060031 | 16 | 274 | 3.2 | 11.3 | 0.00 | 0.36 | 0.03 | 61 | 1016.6 |
| 20260902055519 | 16 | 260 | 1.6 | 9.7 | 0.00 | 0.36 | 0.03 | 61 | 1016.6 |
| 20260902055019 | 16 | 262 | 3.2 | 9.7 | 0.00 | 0.36 | 0.03 | 61 | 1016.6 |
| 20260902054535 | 16 | 259 | 3.2 | 12.9 | 0.00 | 0.36 | 0.03 | 60 | 1016.6 |
| 20260902054018 | 16 | 247 | 4.8 | 12.9 | 0.00 | 0.36 | 0.03 | 60 | 1016.6 |
| 20260902053518 | 16 | 247 | 3.2 | 8.0 | 0.00 | 0.36 | 0.03 | 60 | 1016.6 |
| 20260902053031 | 16 | 247 | 1.6 | 12.9 | 0.00 | 0.36 | 0.03 | 60 | 1016.7 |
| 20260902052522 | 16 | 259 | 3.2 | 12.9 | 0.00 | 0.36 | 0.03 | 59 | 1016.7 |
| 20260902052017 | 16 | 263 | 3.2 | 9.7 | 0.00 | 0.36 | 0.03 | 59 | 1016.8 |
| 20260902051534 | 16 | 269 | 1.6 | 9.7 | 0.00 | 0.36 | 0.03 | 60 | 1016.8 |
| 20260902051019 | 16 | 268 | 3.2 | 9.7 | 0.00 | 0.36 | 0.03 | 60 | 1016.8 |
| 20260902050519 | 16 | 255 | 0.0 | 9.7 | 0.00 | 0.36 | 0.03 | 59 | 1016.8 |
| 20260902050056 | 16 | 255 | 3.2 | 12.9 | 0.00 | 0.36 | 0.03 | 60 | 1016.9 |
| 20260902045518 | 16 | 260 | 3.2 | 12.9 | 0.00 | 0.36 | 0.03 | 59 | 1016.8 |
| 20260902045022 | 16 | 288 | 1.6 | 11.3 | 0.00 | 0.36 | 0.03 | 60 | 1016.9 |
| 20260902044536 | 16 | 286 | 3.2 | 11.3 | 0.00 | 0.36 | 0.03 | 59 | 1016.9 |
| 20260902044021 | 16 | 290 | 3.2 | 12.9 | 0.00 | 0.36 | 0.03 | 58 | 1016.9 |
| 20260902043518 | 16 | 300 | 3.2 | 12.9 | 0.00 | 0.36 | 0.03 | 58 | 1016.9 |
| 20260902043037 | 16 | 278 | 3.2 | 11.3 | 0.00 | 0.36 | 0.03 | 58 | 1017.0 |
| 20260902042521 | 16 | 282 | 3.2 | 11.3 | 0.00 | 0.36 | 0.03 | 58 | 1016.9 |
| 20260902042020 | 16 | 282 | 3.2 | 11.3 | 0.00 | 0.36 | 0.03 | 58 | 1016.8 |
| 20260902041535 | 16 | 303 | 3.2 | 17.7 | 0.00 | 0.36 | 0.03 | 59 | 1017.1 |
| 20260902041018 | 16 | 281 | 4.8 | 17.7 | 0.00 | 0.36 | 0.03 | 58 | 1017.0 |
| 20260902040519 | 16 | 255 | 3.2 | 14.5 | 0.00 | 0.36 | 0.03 | 57 | 1017.0 |
| 20260902040035 | 16 | 257 | 4.8 | 16.1 | 0.00 | 0.36 | 0.03 | 58 | 1017.2 |
| 20260902035518 | 16 | 260 | 6.4 | 16.1 | 0.00 | 0.36 | 0.03 | 59 | 1017.3 |
| 20260902035022 | 16 | 257 | 8.0 | 16.1 | 0.00 | 0.36 | 0.03 | 59 | 1017.3 |
| 20260902034532 | 16 | 277 | 3.2 | 14.5 | 0.00 | 0.36 | 0.03 | 59 | 1017.2 |
| 20260902034023 | 16 | 304 | 4.8 | 14.5 | 0.00 | 0.36 | 0.03 | 60 | 1017.2 |
| 20260902033515 | 16 | 250 | 3.2 | 16.1 | 0.00 | 0.36 | 0.03 | 61 | 1017.3 |
| 20260902033052 | 16 | 286 | 1.6 | 16.1 | 0.00 | 0.36 | 0.03 | 60 | 1017.3 |
| 20260902032520 | 16 | 280 | 4.8 | 16.1 | 0.00 | 0.36 | 0.03 | 60 | 1017.2 |
| 20260902032023 | 17 | 0 | 3.2 | 16.1 | 0.00 | 0.36 | 0.03 | 60 | 1017.3 |
| 20260902031532 | 17 | 230 | 4.8 | 12.9 | 0.00 | 0.36 | 0.03 | 60 | 1017.3 |
| 20260902031019 | 17 | 228 | 3.2 | 14.5 | 0.00 | 0.36 | 0.03 | 61 | 1017.4 |
| 20260902030518 | 17 | 200 | 6.4 | 16.1 | 0.00 | 0.36 | 0.03 | 61 | 1017.4 |
| 20260902030034 | 17 | 268 | 4.8 | 16.1 | 0.00 | 0.36 | 0.03 | 61 | 1017.4 |
| 20260902025520 | 17 | 298 | 4.8 | 12.9 | 0.00 | 0.36 | 0.03 | 62 | 1017.4 |
| 20260902025016 | 16 | 307 | 4.8 | 14.5 | 0.00 | 0.36 | 0.03 | 62 | 1017.4 |
| 20260902024543 | 16 | 315 | 3.2 | 14.5 | 0.00 | 0.36 | 0.03 | 62 | 1017.5 |
| 20260902024018 | 16 | 261 | 3.2 | 14.5 | 0.00 | 0.36 | 0.03 | 62 | 1017.7 |
| 20260902023515 | 16 | 259 | 3.2 | 14.5 | 0.00 | 0.36 | 0.03 | 62 | 1017.8 |
| 20260902023036 | 16 | 234 | 3.2 | 8.0 | 0.00 | 0.36 | 0.03 | 63 | 1017.9 |
| 20260902022518 | 16 | 252 | 1.6 | 9.7 | 0.00 | 0.36 | 0.03 | 63 | 1017.8 |
| 20260902022019 | 16 | 255 | 3.2 | 9.7 | 0.00 | 0.36 | 0.03 | 63 | 1017.7 |
| 20260902021534 | 16 | 271 | 3.2 | 9.7 | 0.00 | 0.36 | 0.03 | 64 | 1017.8 |
| 20260902021019 | 16 | 265 | 3.2 | 9.7 | 0.00 | 0.36 | 0.03 | 64 | 1017.9 |
| 20260902020519 | 15 | 281 | 1.6 | 9.7 | 0.00 | 0.36 | 0.03 | 65 | 1017.9 |
| 20260902020038 | 15 | 281 | 3.2 | 11.3 | 0.00 | 0.36 | 0.03 | 65 | 1018.1 |
| 20260902015519 | 15 | 279 | 3.2 | 11.3 | 0.00 | 0.36 | 0.03 | 65 | 1018.0 |
| 20260902015018 | 15 | 250 | 1.6 | 9.7 | 0.00 | 0.36 | 0.03 | 66 | 1018.1 |
| 20260902014534 | 15 | 263 | 3.2 | 9.7 | 0.00 | 0.36 | 0.03 | 67 | 1018.2 |
| 20260902014015 | 15 | 0 | 1.6 | 12.9 | 0.00 | 0.36 | 0.03 | 67 | 1018.2 |
| 20260902013516 | 15 | 271 | 3.2 | 12.9 | 0.00 | 0.36 | 0.03 | 67 | 1018.2 |
| 20260902013035 | 15 | 259 | 6.4 | 12.9 | 0.00 | 0.36 | 0.03 | 67 | 1018.3 |
| 20260902012521 | 15 | 263 | 4.8 | 11.3 | 0.00 | 0.36 | 0.03 | 68 | 1018.5 |
| 20260902012022 | 15 | 257 | 4.8 | 11.3 | 0.00 | 0.36 | 0.03 | 68 | 1018.4 |
| 20260902011534 | 15 | 262 | 1.6 | 11.3 | 0.00 | 0.36 | 0.03 | 69 | 1018.5 |
| 20260902011016 | 15 | 268 | 4.8 | 11.3 | 0.00 | 0.36 | 0.03 | 69 | 1018.6 |
| 20260902010521 | 15 | 260 | 3.2 | 12.9 | 0.00 | 0.36 | 0.03 | 70 | 1018.6 |
| 20260902010031 | 15 | 262 | 3.2 | 12.9 | 0.00 | 0.36 | 0.03 | 70 | 1018.7 |
| 20260902005520 | 15 | 266 | 4.8 | 11.3 | 0.00 | 0.36 | 0.03 | 71 | 1018.6 |
| 20260902005016 | 15 | 267 | 3.2 | 9.7 | 0.00 | 0.36 | 0.03 | 72 | 1018.8 |
| 20260902004533 | 14 | 266 | 3.2 | 9.7 | 0.00 | 0.36 | 0.03 | 72 | 1018.9 |
| 20260902004015 | 14 | 263 | 3.2 | 11.3 | 0.00 | 0.36 | 0.03 | 73 | 1018.9 |
| 20260902003515 | 14 | 265 | 3.2 | 11.3 | 0.00 | 0.36 | 0.03 | 74 | 1018.9 |
| 20260902003035 | 14 | 271 | 3.2 | 11.3 | 0.00 | 0.36 | 0.03 | 75 | 1019.0 |
| 20260902002521 | 13 | 267 | 1.6 | 14.5 | 0.00 | 0.36 | 0.03 | 76 | 1018.9 |
| 20260902002019 | 13 | 265 | 3.2 | 14.5 | 0.00 | 0.36 | 0.03 | 77 | 1019.2 |
| 20260902001534 | 14 | 261 | 4.8 | 14.5 | 0.00 | 0.36 | 0.03 | 78 | 1019.1 |
| 20260902001019 | 14 | 279 | 3.2 | 12.9 | 0.00 | 0.36 | 0.03 | 80 | 1019.1 |
| 20260902000520 | 13 | 282 | 4.8 | 12.9 | 0.00 | 0.36 | 0.03 | 81 | 1018.9 |
| 20260902000033 | 13 | 289 | 3.2 | 8.0 | 0.00 | 0.36 | 0.03 | 83 | 1019.1 |
| 20260901235518 | 13 | 287 | 3.2 | 11.3 | 0.00 | 0.36 | 0.03 | 84 | 1019.0 |
| 20260901235015 | 13 | 291 | 1.6 | 11.3 | 0.00 | 0.36 | 0.03 | 84 | 1019.1 |
| 20260901234533 | 12 | 289 | 1.6 | 14.5 | 0.00 | 0.36 | 0.03 | 85 | 1019.1 |
| 20260901234016 | 12 | 0 | 1.6 | 14.5 | 0.00 | 0.36 | 0.03 | 85 | 1019.1 |
| 20260901233518 | 12 | 298 | 3.2 | 14.5 | 0.00 | 0.36 | 0.03 | 86 | 1019.1 |
| 20260901233039 | 12 | 291 | 3.2 | 11.3 | 0.00 | 0.36 | 0.03 | 87 | 1019.1 |
| 20260901232519 | 12 | 271 | 1.6 | 11.3 | 0.00 | 0.36 | 0.03 | 87 | 1019.3 |
| 20260901232019 | 12 | 277 | 3.2 | 11.3 | 0.00 | 0.36 | 0.03 | 87 | 1019.4 |
| 20260901231536 | 12 | 280 | 3.2 | 11.3 | 0.00 | 0.36 | 0.03 | 87 | 1019.4 |
| 20260901231019 | 12 | 284 | 3.2 | 11.3 | 0.00 | 0.36 | 0.03 | 88 | 1019.3 |
| 20260901230517 | 12 | 277 | 3.2 | 8.0 | 0.00 | 0.36 | 0.03 | 88 | 1019.7 |
| 20260901230033 | 12 | 289 | 3.2 | 8.0 | 0.00 | 0.36 | 0.03 | 88 | 1019.6 |
| 20260901225517 | 12 | 294 | 3.2 | 6.4 | 0.00 | 0.36 | 0.03 | 88 | 1019.6 |
| 20260901225017 | 12 | 296 | 0.0 | 4.8 | 0.00 | 0.36 | 0.03 | 88 | 1019.6 |
| 20260901224537 | 12 | 0 | 0.0 | 4.8 | 0.00 | 0.36 | 0.03 | 88 | 1019.7 |
| 20260901224018 | 12 | 296 | 0.0 | 4.8 | 0.00 | 0.36 | 0.03 | 88 | 1019.6 |
| 20260901223517 | 12 | 0 | 0.0 | 3.2 | 0.00 | 0.36 | 0.03 | 88 | 1019.6 |
| 20260901223032 | 12 | 296 | 0.0 | 3.2 | 0.00 | 0.36 | 0.03 | 88 | 1019.4 |
| 20260901222518 | 12 | 0 | 0.0 | 1.6 | 0.00 | 0.36 | 0.03 | 88 | 1019.3 |
| 20260901222018 | 12 | 0 | 0.0 | 0.0 | 0.00 | 0.36 | 0.03 | 88 | 1019.3 |
| 20260901221534 | 12 | 0 | 0.0 | 0.0 | 0.00 | 0.36 | 0.03 | 88 | 1019.3 |
| 20260901221019 | 12 | 0 | 0.0 | 0.0 | 0.00 | 0.36 | 0.03 | 88 | 1019.2 |
| 20260901220518 | 11 | 0 | 0.0 | 0.0 | 0.00 | 0.36 | 0.03 | 88 | 1019.2 |
| 20260901220033 | 11 | 0 | 0.0 | 0.0 | 0.00 | 0.36 | 0.03 | 88 | 1019.2 |
| 20260901215516 | 11 | 0 | 0.0 | 0.0 | 0.00 | 0.36 | 0.03 | 88 | 1019.2 |
| 20260901215016 | 11 | 0 | 0.0 | 0.0 | 0.00 | 0.36 | 0.03 | 88 | 1019.1 |
| 20260901214543 | 11 | 0 | 0.0 | 0.0 | 0.00 | 0.36 | 0.03 | 88 | 1019.2 |
| 20260901214017 | 11 | 0 | 0.0 | 0.0 | 0.00 | 0.36 | 0.03 | 88 | 1019.1 |
| 20260901213519 | 11 | 0 | 0.0 | 0.0 | 0.00 | 0.36 | 0.03 | 88 | 1019.1 |
| 20260901213034 | 11 | 0 | 0.0 | 0.0 | 0.00 | 0.36 | 0.03 | 88 | 1018.9 |
| 20260901212516 | 11 | 0 | 0.0 | 0.0 | 0.00 | 0.36 | 0.03 | 87 | 1018.9 |
| 20260901212016 | 11 | 0 | 0.0 | 0.0 | 0.00 | 0.36 | 0.03 | 87 | 1018.9 |
| 20260901211534 | 11 | 0 | 0.0 | 0.0 | 0.00 | 0.36 | 0.03 | 87 | 1018.8 |
| 20260901211017 | 11 | 0 | 0.0 | 0.0 | 0.00 | 0.36 | 0.03 | 87 | 1018.9 |
| 20260901210518 | 11 | 0 | 0.0 | 0.0 | 0.00 | 0.36 | 0.03 | 87 | 1018.8 |
| 20260901210031 | 11 | 0 | 0.0 | 0.0 | 0.00 | 0.36 | 0.03 | 87 | 1018.6 |
| 20260901205516 | 11 | 0 | 0.0 | 0.0 | 0.00 | 0.36 | 0.03 | 87 | 1018.5 |
| 20260901205016 | 11 | 0 | 0.0 | 0.0 | 0.00 | 0.36 | 0.03 | 87 | 1018.5 |
| 20260901204535 | 11 | 0 | 0.0 | 0.0 | 0.00 | 0.36 | 0.03 | 87 | 1018.4 |
| 20260901204023 | 12 | 0 | 0.0 | 0.0 | 0.00 | 0.36 | 0.03 | 87 | 1018.4 |
| 20260901203520 | 12 | 0 | 0.0 | 0.0 | 0.00 | 0.36 | 0.03 | 87 | 1018.3 |
| 20260901203034 | 12 | 0 | 0.0 | 0.0 | 0.00 | 0.36 | 0.03 | 87 | 1018.3 |
| 20260901202516 | 12 | 0 | 0.0 | 0.0 | 0.00 | 0.33 | 0.00 | 87 | 1018.3 |
| 20260901202016 | 12 | 0 | 0.0 | 0.0 | 0.00 | 0.33 | 0.00 | 87 | 1018.1 |
| 20260901201533 | 12 | 0 | 0.0 | 0.0 | 0.00 | 0.33 | 0.00 | 87 | 1018.3 |
| 20260901201019 | 12 | 0 | 0.0 | 0.0 | 0.00 | 0.33 | 0.00 | 87 | 1018.3 |
| 20260901200516 | 12 | 0 | 0.0 | 0.0 | 0.00 | 0.33 | 0.00 | 87 | 1018.2 |
| 20260901200041 | 12 | 0 | 0.0 | 0.0 | 0.00 | 0.33 | 0.00 | 87 | 1018.2 |
| 20260901195518 | 12 | 0 | 0.0 | 0.0 | 0.00 | 0.33 | 0.00 | 87 | 1018.0 |
| 20260901195022 | 12 | 0 | 0.0 | 0.0 | 0.00 | 0.33 | 0.00 | 87 | 1018.1 |
| 20260901194541 | 12 | 0 | 0.0 | 0.0 | 0.00 | 0.33 | 0.00 | 87 | 1018.0 |
| 20260901194020 | 12 | 0 | 0.0 | 0.0 | 0.00 | 0.33 | 0.00 | 87 | 1017.9 |
| 20260901193519 | 12 | 0 | 0.0 | 0.0 | 0.00 | 0.33 | 0.00 | 87 | 1017.9 |
| 20260901193035 | 12 | 0 | 0.0 | 0.0 | 0.00 | 0.33 | 0.00 | 87 | 1017.9 |
| 20260901192519 | 12 | 0 | 0.0 | 0.0 | 0.00 | 0.33 | 0.00 | 87 | 1017.9 |
| 20260901192016 | 12 | 0 | 0.0 | 0.0 | 0.00 | 0.33 | 0.00 | 87 | 1018.1 |
| 20260901191540 | 12 | 0 | 0.0 | 0.0 | 0.00 | 0.33 | 0.00 | 87 | 1017.8 |
| 20260901191016 | 12 | 0 | 0.0 | 0.0 | 0.00 | 0.33 | 0.00 | 87 | 1018.0 |
| 20260901190516 | 12 | 0 | 0.0 | 0.0 | 0.00 | 0.33 | 0.00 | 87 | 1017.9 |
| 20260901190042 | 12 | 0 | 0.0 | 0.0 | 0.00 | 0.33 | 0.00 | 87 | 1018.0 |
| 20260901185519 | 12 | 0 | 0.0 | 0.0 | 0.00 | 0.33 | 0.00 | 87 | 1018.0 |
| 20260901185015 | 12 | 0 | 0.0 | 0.0 | 0.00 | 0.33 | 0.00 | 87 | 1018.0 |
| 20260901184535 | 12 | 0 | 0.0 | 0.0 | 0.00 | 0.30 | 0.00 | 86 | 1018.0 |
| 20260901184021 | 12 | 0 | 0.0 | 0.0 | 0.00 | 0.30 | 0.00 | 86 | 1017.8 |
| 20260901183519 | 12 | 0 | 0.0 | 0.0 | 0.00 | 0.30 | 0.00 | 86 | 1017.9 |
| 20260901183034 | 12 | 0 | 0.0 | 0.0 | 0.00 | 0.30 | 0.00 | 86 | 1017.7 |
| 20260901182520 | 12 | 0 | 0.0 | 0.0 | 0.00 | 0.30 | 0.00 | 86 | 1017.8 |
| 20260901182019 | 12 | 0 | 0.0 | 0.0 | 0.00 | 0.30 | 0.00 | 86 | 1017.8 |
| 20260901181533 | 12 | 0 | 0.0 | 0.0 | 0.00 | 0.30 | 0.00 | 86 | 1017.7 |
| 20260901181016 | 11 | 0 | 0.0 | 0.0 | 0.00 | 0.30 | 0.00 | 86 | 1017.7 |
| 20260901180516 | 11 | 0 | 0.0 | 0.0 | 0.00 | 0.30 | 0.00 | 85 | 1017.5 |
| 20260901180034 | 11 | 0 | 0.0 | 0.0 | 0.00 | 0.30 | 0.00 | 86 | 1017.5 |
| 20260901175520 | 11 | 0 | 0.0 | 0.0 | 0.00 | 0.30 | 0.00 | 85 | 1017.6 |
| 20260901175017 | 11 | 0 | 0.0 | 0.0 | 0.00 | 0.30 | 0.00 | 85 | 1017.6 |
| 20260901174540 | 11 | 0 | 0.0 | 0.0 | 0.00 | 0.30 | 0.00 | 85 | 1017.7 |
| 20260901174026 | 11 | 0 | 0.0 | 0.0 | 0.00 | 0.30 | 0.00 | 85 | 1017.7 |
| 20260901173519 | 11 | 0 | 0.0 | 0.0 | 0.00 | 0.30 | 0.00 | 85 | 1017.7 |
| 20260901173034 | 12 | 0 | 0.0 | 0.0 | 0.00 | 0.30 | 0.00 | 85 | 1017.7 |
| 20260901172515 | 12 | 0 | 0.0 | 0.0 | 0.00 | 0.30 | 0.00 | 85 | 1017.9 |
| 20260901172020 | 12 | 0 | 0.0 | 0.0 | 0.00 | 0.30 | 0.00 | 85 | 1017.9 |
| 20260901171542 | 12 | 0 | 0.0 | 0.0 | 0.00 | 0.30 | 0.00 | 85 | 1017.8 |
| 20260901171019 | 12 | 0 | 0.0 | 0.0 | 0.00 | 0.30 | 0.00 | 85 | 1017.9 |
| 20260901170525 | 12 | 0 | 0.0 | 0.0 | 0.00 | 0.30 | 0.00 | 85 | 1018.1 |
| 20260901170035 | 12 | 0 | 0.0 | 0.0 | 0.00 | 0.30 | 0.00 | 85 | 1018.1 |
| 20260901165520 | 12 | 0 | 0.0 | 0.0 | 0.00 | 0.30 | 0.00 | 85 | 1017.9 |
| 20260901165020 | 12 | 0 | 0.0 | 0.0 | 0.00 | 0.30 | 0.00 | 85 | 1018.0 |
| 20260901164533 | 12 | 0 | 0.0 | 0.0 | 0.00 | 0.30 | 0.00 | 85 | 1018.1 |
| 20260901164020 | 12 | 0 | 0.0 | 0.0 | 0.00 | 0.30 | 0.00 | 85 | 1018.0 |
| 20260901163520 | 12 | 0 | 0.0 | 0.0 | 0.00 | 0.30 | 0.00 | 85 | 1018.1 |
| 20260901163035 | 12 | 0 | 0.0 | 0.0 | 0.00 | 0.30 | 0.00 | 85 | 1018.1 |
| 20260901162519 | 12 | 0 | 0.0 | 0.0 | 0.00 | 0.30 | 0.00 | 85 | 1018.2 |
| 20260901162016 | 12 | 0 | 0.0 | 0.0 | 0.00 | 0.30 | 0.00 | 85 | 1018.1 |
| 20260901161540 | 12 | 0 | 0.0 | 0.0 | 0.00 | 0.30 | 0.00 | 85 | 1018.1 |
| 20260901161019 | 12 | 0 | 0.0 | 0.0 | 0.00 | 0.30 | 0.00 | 85 | 1018.1 |
| 20260901160517 | 12 | 0 | 0.0 | 0.0 | 0.00 | 0.30 | 0.00 | 85 | 1018.1 |
| 20260901160035 | 12 | 0 | 0.0 | 0.0 | 0.00 | 0.30 | 0.00 | 85 | 1018.2 |
| 20260901155519 | 12 | 0 | 0.0 | 0.0 | 0.00 | 0.30 | 0.00 | 85 | 1018.0 |
| 20260901155016 | 12 | 0 | 0.0 | 0.0 | 0.00 | 0.30 | 0.00 | 85 | 1018.1 |
| 20260901154535 | 13 | 0 | 0.0 | 0.0 | 0.00 | 0.30 | 0.00 | 85 | 1018.2 |
| 20260901154018 | 13 | 0 | 0.0 | 0.0 | 0.00 | 0.30 | 0.00 | 85 | 1018.1 |
| 20260901153519 | 13 | 0 | 0.0 | 0.0 | 0.00 | 0.30 | 0.00 | 85 | 1018.1 |
| 20260901153034 | 13 | 0 | 0.0 | 0.0 | 0.00 | 0.30 | 0.00 | 85 | 1018.0 |
| 20260901152515 | 13 | 0 | 0.0 | 0.0 | 0.00 | 0.30 | 0.00 | 85 | 1017.9 |
| 20260901152023 | 13 | 0 | 0.0 | 0.0 | 0.00 | 0.30 | 0.00 | 85 | 1018.0 |
| 20260901151540 | 13 | 0 | 0.0 | 0.0 | 0.00 | 0.30 | 0.00 | 85 | 1018.0 |
| 20260901151020 | 13 | 0 | 0.0 | 0.0 | 0.00 | 0.30 | 0.00 | 85 | 1018.0 |
| 20260901150519 | 13 | 0 | 0.0 | 0.0 | 0.00 | 0.30 | 0.00 | 85 | 1018.1 |
| 20260901150038 | 13 | 0 | 0.0 | 0.0 | 0.00 | 0.30 | 0.00 | 85 | 1018.1 |
| 20260901145516 | 13 | 0 | 0.0 | 0.0 | 0.00 | 0.30 | 0.00 | 85 | 1018.2 |
| 20260901145016 | 14 | 0 | 0.0 | 0.0 | 0.00 | 0.30 | 0.00 | 85 | 1018.1 |
| 20260901144534 | 14 | 0 | 0.0 | 0.0 | 0.00 | 0.30 | 0.00 | 85 | 1018.0 |
| 20260901144016 | 14 | 0 | 0.0 | 0.0 | 0.00 | 0.30 | 0.00 | 85 | 1018.0 |
| 20260901143521 | 14 | 0 | 0.0 | 0.0 | 0.00 | 0.30 | 0.00 | 85 | 1017.9 |
| 20260901143037 | 14 | 0 | 0.0 | 0.0 | 0.00 | 0.30 | 0.00 | 85 | 1017.9 |
| 20260901142519 | 14 | 0 | 0.0 | 0.0 | 0.00 | 0.30 | 0.30 | 85 | 1017.9 |
| 20260901142016 | 14 | 0 | 0.0 | 0.0 | 0.00 | 0.30 | 0.30 | 85 | 1017.9 |
| 20260901141534 | 15 | 0 | 0.0 | 0.0 | 0.00 | 0.30 | 0.30 | 85 | 1018.0 |
| 20260901141016 | 15 | 0 | 0.0 | 3.2 | 0.00 | 0.30 | 0.30 | 85 | 1018.0 |
| 20260901140519 | 15 | 0 | 0.0 | 3.2 | 0.00 | 0.30 | 0.30 | 85 | 1018.0 |
| 20260901140104 | 15 | 0 | 0.0 | 4.8 | 0.00 | 0.30 | 0.30 | 85 | 1018.0 |
| 20260901135520 | 15 | 0 | 0.0 | 4.8 | 0.00 | 0.30 | 0.30 | 85 | 1018.1 |
| 20260901135019 | 15 | 296 | 0.0 | 4.8 | 0.00 | 0.30 | 0.30 | 85 | 1018.0 |
| 20260901134538 | 15 | 0 | 0.0 | 4.8 | 0.00 | 0.30 | 0.30 | 85 | 1018.0 |
| 20260901134018 | 15 | 296 | 0.0 | 3.2 | 0.00 | 0.30 | 0.30 | 84 | 1018.1 |
| 20260901133516 | 15 | 0 | 0.0 | 0.0 | 0.00 | 0.30 | 0.30 | 84 | 1018.1 |
| 20260901133036 | 15 | 0 | 0.0 | 0.0 | 0.00 | 0.30 | 0.30 | 84 | 1018.2 |
| 20260901132521 | 15 | 0 | 0.0 | 1.6 | 0.00 | 0.30 | 0.30 | 84 | 1018.3 |
| 20260901132018 | 14 | 0 | 0.0 | 1.6 | 0.00 | 0.30 | 0.30 | 84 | 1018.2 |
| 20260901131537 | 14 | 0 | 0.0 | 1.6 | 0.00 | 0.30 | 0.30 | 84 | 1018.2 |
| 20260901131018 | 14 | 296 | 0.0 | 1.6 | 0.00 | 0.30 | 0.30 | 84 | 1018.2 |